Abilene Dyess, TX

2:20 PM CST on November 13, 2019 (GMT -0600)
Dyess Air Force Base

Weather History for KDYS - July, 2019

Change the Weather History Date:

Monday, July 22, 2019

  Actual Average Record
Temperature  
Mean Temperature 84 °F -  
Max Temperature 95 °F 95 °F 106 °F (2018)
Min Temperature 75 °F 74 °F 66 °F (2007)
Cooling Degree Days 20    
Growing Degree Days 34 (Base 50)    
Moisture  
Dew Point 63 °F    
Average Humidity 47    
Maximum Humidity 61    
Minimum Humidity 36    
Precipitation  
Precipitation 0.00 in - - ()
Sea Level Pressure  
Sea Level Pressure 29.91 in    
Wind  
Wind Speed 10 mph (ENE)    
Max Wind Speed 18 mph    
Max Gust Speed 26 mph    
Visibility 10 miles    
Events      
Averages and records for this station are not official NWS values.
T = Trace of Precipitation, MM = Missing Value Source: NWS Daily Summary

Daily Weather History Graph

Daily Weather History Graph

Search for Another Location

Airport or City:

Astronomy

Jul. 22, 2019 Rise Set
Actual Time 6:47 AM CDT 8:44 PM CDT
Civil Twilight 6:19 AM CDT 9:11 PM CDT
Nautical Twilight 5:46 AM CDT 9:44 PM CDT
Astronomical Twilight 5:11 AM CDT 10:19 PM CDT
Moon No Moon Rise 11:50 AM CDT (7/22)
Length of Visible Light 14h 51m
Length of Day
13h 56m
Waning Gibbous, 72% of the Moon is Illuminated
Jul 22
Waning Gibbous
Jul 24
Last Quarter
Jul 31
New
Aug 7
First Quarter
Aug 15
Full

Hourly Weather History & Observations

Time (CDT) Temp. Heat Index Dew Point Humidity Pressure Visibility Wind Dir Wind Speed Gust Speed Precip Events Conditions
12:56 AM 80.6 °F 81.0 °F 58.5 °F 47% 29.82 in 10.0 mi ESE 8.1 mph - N/A   Clear
1:56 AM 75.2 °F - 58.5 °F 56% 29.84 in 10.0 mi SE 9.2 mph - N/A   Scattered Clouds
2:56 AM 79.0 °F - 59.9 °F 52% 29.83 in 10.0 mi SSE 5.8 mph - N/A   Overcast
3:56 AM 78.4 °F - 59.9 °F 53% 29.83 in 10.0 mi SSE 9.2 mph - N/A   Overcast
4:56 AM 79.9 °F - 62.2 °F 55% 29.84 in 10.0 mi South 6.9 mph - N/A   Overcast
5:56 AM 78.8 °F - 63.1 °F 59% 29.85 in 10.0 mi SSW 6.9 mph - N/A   Mostly Cloudy
6:56 AM 78.3 °F - 64.0 °F 61% 29.87 in 10.0 mi South 4.6 mph - N/A   Mostly Cloudy
8:56 AM 82.9 °F 84.8 °F 65.1 °F 55% 29.93 in 10.0 mi West 3.5 mph - N/A   Clear
10:56 AM 88.7 °F 89.8 °F 63.9 °F 43% 29.93 in 10.0 mi WNW 8.1 mph - N/A   Partly Cloudy
11:50 AM 89.6 °F 90.1 °F 62.6 °F 40% 29.95 in 10.0 mi NNE 13.8 mph 16.1 mph N/A   Partly Cloudy
11:56 AM 90.5 °F 91.1 °F 62.1 °F 39% 29.95 in 10.0 mi North 11.5 mph - N/A   Scattered Clouds
12:56 PM 90.3 °F 90.5 °F 61.2 °F 38% 29.95 in 10.0 mi North 15.0 mph - N/A   Mostly Cloudy
1:56 PM 93.9 °F 95.6 °F 63.7 °F 37% 29.94 in 10.0 mi NNE 13.8 mph - N/A   Scattered Clouds
2:32 PM 93.2 °F 94.1 °F 62.6 °F 36% 29.92 in 10.0 mi NNE 18.4 mph 26.5 mph N/A   Scattered Clouds
2:56 PM 93.9 °F 96.1 °F 64.4 °F 38% 29.92 in 10.0 mi NE 15.0 mph 20.7 mph N/A   Scattered Clouds
3:56 PM 94.1 °F 96.9 °F 65.3 °F 39% 29.90 in 10.0 mi NE 15.0 mph 21.9 mph N/A   Clear
4:56 PM 93.9 °F 96.1 °F 65.1 °F 38% 29.90 in 10.0 mi NE 16.1 mph 23.0 mph N/A   Partly Cloudy
5:56 PM 91.8 °F 93.8 °F 65.3 °F 41% 29.89 in 10.0 mi NE 15.0 mph 23.0 mph N/A   Partly Cloudy
6:30 PM 91.4 °F 94.0 °F 66.2 °F 43% 29.91 in 10.0 mi NE 16.1 mph - N/A   Clear
6:56 PM 90.0 °F 91.7 °F 64.4 °F 43% 29.91 in 10.0 mi NE 16.1 mph - N/A   Clear
7:30 PM 87.8 °F 89.4 °F 64.4 °F 46% 29.92 in 10.0 mi NE 18.4 mph - N/A   Partly Cloudy
7:56 PM 86.7 °F 87.5 °F 63.3 °F 45% 29.93 in 10.0 mi NE 16.1 mph 23.0 mph N/A   Partly Cloudy
8:56 PM 83.5 °F 84.5 °F 62.8 °F 50% 29.96 in 10.0 mi ENE 12.7 mph - N/A   Clear
9:56 PM 81.5 °F 82.4 °F 61.5 °F 51% 29.99 in 10.0 mi East 5.8 mph - N/A   Clear
10:56 PM 79.9 °F - 62.2 °F 55% 30.01 in 10.0 mi ENE 5.8 mph - N/A   Clear
11:56 PM 77.5 °F - 62.6 °F 60% 30.03 in 10.0 mi ENE 6.9 mph - N/A   Clear